Location: Waco, TX
(31.5480°N, 97.1670°W)
Time: 15:58:41
(UTC-05:00)

ISS - Pass Details

Date: 12 September 2019
Orbit: 411 x 421 km, 51.6° (Epoch: 17 September)

Event Time Altitude Azimuth Distance (km) Brightness Sun altitude
Rises 22:06:31 0° 198° (SSW) 2,324 - -31.0°
Reaches altitude 10° 22:08:51 10° 184° (S) 1,467 - -31.5°
Maximum altitude 22:11:33 24° 128° (SE) 906 - -32.0°
Drops below altitude 10° 22:14:15 10° 73° (ENE) 1,474 - -32.5°
Sets 22:16:36 0° 59° (ENE) 2,339 - -32.9°
